Home   Weather   Emsdetten   Past weeks

Flag for Germany Past Weather in Emsdetten, North Rhine-Westphalia, Germany — Yesterday and Last 2 Weeks

Now
52 °F

Broken clouds.


Feels Like: 47 °F
Forecast: 34 / 50 °F
Wind: 13 mph from West

Location: Muenster / Osnabrueck

Current Time: Apr 28, 2017 at 5:57:32 pm

Latest Report: Apr 28, 2017 at 5:20 pm


Visibility: N/A

Pressure: 29.92 "Hg

Humidity: 58%

Dew Point: 37 °F

Location of EmsdettenLocation

Past Weather in Emsdetten — Graph

°F

Emsdetten Temperature Yesterday

Maximum temperature yesterday: 52 °F (at 3:20 pm)
Minimum temperature yesterday: 30 °F (at 5:50 am)
Average temperature yesterday: 42 °F

High & Low Weather Summary for the Past Weeks

 TemperatureHumidityPressure
High57 °F (Apr 24, 1:50 pm)100% (Apr 14, 6:20 am)30.63 "Hg (Apr 14, 6:20 am)
Low27 °F (Apr 20, 4:20 am)30% (Apr 20, 4:50 pm)29.65 "Hg (Apr 25, 3:20 am)
Average43 °F70%30.11 "Hg
* Reported Apr 13 4:20 pm — Apr 28 4:20 pm, Emsdetten, Weather by CustomWeather, © 2017

Note: Actual official high and low records may vary slightly from our data, if they occured in-between our weather recording intervals... More about our weather records

Advertising

Emsdetten Weather History for the Previous 24 Hours

Scroll right to see more
 ConditionsComfort  
Time TempWeatherWind HumidityBarometerVisibility
4:20 pm
Fri, Apr 28
48 °FSprinkles. Broken clouds.7 mph71%29.92 "HgN/A
3:50 pm48 °FPartly sunny.12 mph66%29.92 "HgN/A
3:20 pm52 °FPartly sunny.12 mph54%29.92 "HgN/A
2:50 pm52 °FBroken clouds.12 mph58%29.92 "HgN/A
2:20 pm52 °FPartly sunny.9 mph58%29.92 "HgN/A
1:50 pm50 °FPartly sunny.10 mph62%29.92 "HgN/A
1:20 pm48 °FBroken clouds.10 mph66%29.92 "HgN/A
12:50 pm46 °FPartly sunny.8 mph71%29.92 "HgN/A
12:20 pm45 °FPartly sunny.8 mph76%29.92 "HgN/A
11:50 am45 °FPartly sunny.8 mph76%29.92 "HgN/A
11:20 am45 °FPartly sunny.10 mph76%29.92 "HgN/A
10:50 am45 °FBroken clouds.8 mph76%29.92 "HgN/A
10:20 am43 °FLight rain. Partly sunny.6 mph76%29.92 "HgN/A
9:50 am43 °FLight rain. Partly sunny.8 mph76%29.92 "HgN/A
9:20 am41 °FPartly sunny.8 mph76%29.92 "HgN/A
8:50 am39 °FPartly sunny.7 mph81%29.92 "HgN/A
8:20 am39 °FPartly sunny.6 mph81%29.92 "HgN/A
7:50 am37 °FPartly sunny.7 mph81%29.92 "HgN/A
7:20 am36 °FPartly sunny.6 mph87%29.92 "HgN/A
6:50 am36 °FPartly sunny.7 mph87%29.92 "HgN/A
6:20 am30 °FFog.1 mph100%29.92 "HgN/A
5:50 am32 °FFog.1 mph93%29.92 "HgN/A
5:20 am34 °FClear.2 mph87%29.92 "Hg10 mi
4:50 am34 °FClear.2 mph93%29.92 "Hg10 mi
4:20 am34 °FClear.2 mph87%29.92 "Hg10 mi
3:50 am32 °FClear.1 mph93%29.95 "Hg10 mi
3:20 am34 °FClear.2 mph93%29.95 "Hg10 mi
2:50 am34 °FClear.2 mph87%29.95 "Hg10 mi
2:20 am36 °FPassing clouds.2 mph87%29.95 "HgN/A
1:50 am34 °FClear.1 mph93%29.95 "Hg10 mi
1:20 am36 °FClear.1 mph87%29.95 "Hg10 mi
12:50 am36 °FPassing clouds.2 mph81%29.95 "HgN/A
12:20 am37 °FPassing clouds.1 mph81%29.95 "HgN/A
11:50 pm
Thu, Apr 27
39 °FPassing clouds.2 mph75%29.95 "HgN/A
11:20 pm39 °FPassing clouds.1 mph75%29.98 "HgN/A
10:50 pm39 °FPassing clouds.2 mph75%29.98 "HgN/A
10:20 pm43 °FPassing clouds.3 mph66%29.98 "HgN/A
9:50 pm46 °FPassing clouds.3 mph53%29.98 "HgN/A
9:20 pm46 °FPassing clouds.6 mph53%29.98 "HgN/A
8:50 pm46 °FPassing clouds.5 mph57%29.98 "HgN/A
8:20 pm48 °FPartly sunny.5 mph54%29.95 "HgN/A
7:50 pm48 °FPartly sunny.6 mph54%29.95 "HgN/A
7:20 pm48 °FPartly sunny.8 mph50%29.95 "HgN/A
6:50 pm50 °FPassing clouds.9 mph43%29.95 "HgN/A
6:20 pm50 °FBroken clouds.6 mph50%29.95 "HgN/A
5:50 pm48 °FBroken clouds.8 mph50%29.98 "HgN/A
5:20 pm48 °FBroken clouds.14 mph54%29.98 "HgN/A
Weather by CustomWeather, © 2017

See weather overviewHow to use our weather pages